BCS7NC EBBR-EKCH

Flight info

Callsign BCS7NC
Flight time N/A
Altitude 35000
Route NIK L191 VICOT N873 SPY DCT DOSUR P729 TUDLO
Aircraft A306/H-SDE3FGHIRWY/LB1

Departure

Time 2026-05-07 07:40
Airport Brussels Airport (EBBR)

Arrival

Time N/A
Airport Copenhagen Kastrup Airport (EKCH)
Time Latitude Longitude Altitude Speed Heading
2026-05-07 07:08 50.90272 4.45651 191 ft 0 kts 335°
2026-05-07 07:17 50.90271 4.45651 191 ft 0 kts 335°
2026-05-07 07:25 50.90265 4.45656 209 ft 4 kts 332°
2026-05-07 07:26 50.90243 4.45679 206 ft 4 kts 313°
2026-05-07 07:26 50.90227 4.45712 206 ft 4 kts 295°
2026-05-07 07:26 50.90218 4.45752 206 ft 4 kts 279°
2026-05-07 07:26 50.90216 4.45794 206 ft 4 kts 266°
2026-05-07 07:27 50.90220 4.45836 204 ft 4 kts 256°
2026-05-07 07:27 50.90225 4.45863 206 ft 4 kts 248°
2026-05-07 07:27 50.90228 4.45877 206 ft 1 kts 245°
2026-05-07 07:29 50.90226 4.45870 206 ft 3 kts 245°
2026-05-07 07:29 50.90204 4.45792 203 ft 12 kts 245°
2026-05-07 07:30 50.90159 4.45638 202 ft 19 kts 245°
2026-05-07 07:30 50.90050 4.45540 201 ft 21 kts 172°
2026-05-07 07:30 50.89916 4.45660 199 ft 25 kts 149°
2026-05-07 07:30 50.89760 4.45718 204 ft 25 kts 161°
2026-05-07 07:31 50.89656 4.45907 193 ft 24 kts 119°
2026-05-07 07:31 50.89583 4.46170 196 ft 28 kts 105°
2026-05-07 07:31 50.89633 4.46473 203 ft 31 kts 65°
2026-05-07 07:31 50.89726 4.46805 191 ft 35 kts 69°
2026-05-07 07:32 50.89834 4.47159 203 ft 37 kts 65°
2026-05-07 07:32 50.89947 4.47542 204 ft 39 kts 54°
2026-05-07 07:32 50.90050 4.47585 195 ft 9 kts 313°
2026-05-07 07:32 50.90121 4.47508 202 ft 15 kts 336°
2026-05-07 07:33 50.90234 4.47439 196 ft 16 kts 348°
2026-05-07 07:33 50.90279 4.47509 204 ft 11 kts 72°
2026-05-07 07:33 50.90313 4.47643 202 ft 16 kts 66°
2026-05-07 07:33 50.90368 4.47839 201 ft 22 kts 66°
2026-05-07 07:34 50.90442 4.48084 197 ft 27 kts 64°
2026-05-07 07:34 50.90523 4.48346 198 ft 26 kts 66°
2026-05-07 07:34 50.90545 4.48437 201 ft 0 kts 66°
2026-05-07 07:34 50.90547 4.48443 199 ft 3 kts 65°
2026-05-07 07:35 50.90565 4.48514 196 ft 11 kts 69°
2026-05-07 07:35 50.90607 4.48657 203 ft 16 kts 64°
2026-05-07 07:35 50.90655 4.48824 201 ft 19 kts 66°
2026-05-07 07:35 50.90715 4.49035 196 ft 24 kts 65°
2026-05-07 07:36 50.90794 4.49307 198 ft 29 kts 65°
2026-05-07 07:36 50.90887 4.49613 199 ft 31 kts 65°
2026-05-07 07:36 50.90844 4.49781 201 ft 11 kts 190°
2026-05-07 07:36 50.90756 4.49724 202 ft 17 kts 202°
2026-05-07 07:37 50.90627 4.49663 193 ft 22 kts 193°
2026-05-07 07:37 50.90460 4.49595 195 ft 28 kts 197°
2026-05-07 07:37 50.90258 4.49512 199 ft 33 kts 194°
2026-05-07 07:37 50.90024 4.49421 191 ft 37 kts 194°
2026-05-07 07:38 50.89760 4.49318 201 ft 41 kts 194°
2026-05-07 07:38 50.89494 4.49157 200 ft 41 kts 195°
2026-05-07 07:38 50.89208 4.49042 198 ft 43 kts 191°
2026-05-07 07:38 50.88921 4.48909 202 ft 44 kts 196°
2026-05-07 07:39 50.88721 4.48957 195 ft 14 kts 119°
2026-05-07 07:39 50.88741 4.49126 203 ft 22 kts 55°
2026-05-07 07:39 50.89010 4.49271 196 ft 75 kts 14°
2026-05-07 07:39 50.89746 4.49569 195 ft 145 kts 14°
2026-05-07 07:40 50.90965 4.50063 326 ft 207 kts 14°
2026-05-07 07:40 50.92387 4.50708 1344 ft 213 kts 19°
2026-05-07 07:40 50.93784 4.51338 2663 ft 206 kts 11°
2026-05-07 07:40 50.95201 4.51175 3569 ft 211 kts 343°
2026-05-07 07:41 50.96489 4.49891 4171 ft 231 kts 317°
2026-05-07 07:41 50.97509 4.47808 4851 ft 246 kts 303°
2026-05-07 07:41 50.98254 4.45163 5004 ft 285 kts 287°
2026-05-07 07:41 50.98911 4.42001 4957 ft 318 kts 301°
2026-05-07 07:42 51.00460 4.39529 5675 ft 318 kts 327°
2026-05-07 07:42 51.02300 4.37700 6879 ft 307 kts 327°
2026-05-07 07:42 51.04026 4.35795 8055 ft 297 kts 323°
2026-05-07 07:42 51.05635 4.33817 9349 ft 286 kts 320°
2026-05-07 07:43 51.07128 4.31848 10547 ft 275 kts 319°
2026-05-07 07:43 51.08563 4.29876 11679 ft 265 kts 317°
2026-05-07 07:43 51.09927 4.27952 12653 ft 261 kts 317°
2026-05-07 07:43 51.11251 4.26055 13435 ft 262 kts 317°
2026-05-07 07:44 51.12780 4.24359 14155 ft 266 kts 333°
2026-05-07 07:44 51.14569 4.23546 14786 ft 272 kts 356°
2026-05-07 07:44 51.16414 4.24029 15374 ft 278 kts 21°
2026-05-07 07:44 51.18153 4.25443 16028 ft 281 kts 30°
2026-05-07 07:45 51.19749 4.27197 16645 ft 284 kts 36°
2026-05-07 07:45 51.21334 4.29194 17268 ft 287 kts 38°
2026-05-07 07:45 51.22879 4.31226 17848 ft 291 kts 38°
2026-05-07 07:45 51.24453 4.33282 18436 ft 293 kts 38°
2026-05-07 07:46 51.26041 4.35307 18945 ft 295 kts 37°
2026-05-07 07:46 51.27671 4.37335 19450 ft 298 kts 36°
2026-05-07 07:46 51.29334 4.39370 19951 ft 300 kts 36°
2026-05-07 07:46 51.31005 4.41393 20439 ft 302 kts 36°
2026-05-07 07:47 51.32674 4.43406 20883 ft 305 kts 36°
2026-05-07 07:47 51.34371 4.45451 21296 ft 309 kts 36°
2026-05-07 07:47 51.36111 4.47552 21723 ft 312 kts 36°
2026-05-07 07:47 51.37840 4.49644 22145 ft 316 kts 36°
2026-05-07 07:48 51.39604 4.51785 22562 ft 318 kts 36°
2026-05-07 07:48 51.41377 4.53940 22897 ft 322 kts 36°
2026-05-07 07:48 51.43173 4.56126 23293 ft 327 kts 36°
2026-05-07 07:48 51.45011 4.58364 23564 ft 335 kts 36°
2026-05-07 07:49 51.46870 4.60631 23998 ft 336 kts 36°
2026-05-07 07:49 51.48735 4.62909 24395 ft 337 kts 36°
2026-05-07 07:49 51.50613 4.65205 24754 ft 340 kts 36°
2026-05-07 07:49 51.52507 4.67522 25100 ft 343 kts 36°
2026-05-07 07:50 51.54413 4.69857 25448 ft 346 kts 36°
2026-05-07 07:50 51.56315 4.72188 25786 ft 349 kts 36°
2026-05-07 07:50 51.58258 4.74573 26128 ft 352 kts 36°
2026-05-07 07:50 51.60218 4.76981 26474 ft 356 kts 36°
2026-05-07 07:51 51.62191 4.79407 26792 ft 359 kts 36°
2026-05-07 07:51 51.64187 4.81865 27111 ft 362 kts 36°
2026-05-07 07:51 51.66197 4.84342 27433 ft 365 kts 36°
2026-05-07 07:51 51.68223 4.86843 27759 ft 368 kts 36°
2026-05-07 07:52 51.70260 4.89359 28081 ft 371 kts 36°
2026-05-07 07:52 51.72307 4.91892 28421 ft 374 kts 36°
2026-05-07 07:52 51.74395 4.94478 28730 ft 377 kts 36°
2026-05-07 07:52 51.76485 4.97069 29042 ft 381 kts 36°
2026-05-07 07:53 51.78550 4.99631 29349 ft 384 kts 36°
2026-05-07 07:53 51.80698 5.02302 29664 ft 387 kts 36°
2026-05-07 07:53 51.82842 5.04969 29975 ft 390 kts 36°
2026-05-07 07:53 51.85003 5.07661 30257 ft 393 kts 36°
2026-05-07 07:54 51.87185 5.10383 30499 ft 396 kts 37°
2026-05-07 07:54 51.89367 5.13109 30771 ft 399 kts 37°
2026-05-07 07:54 51.91546 5.15834 31019 ft 401 kts 37°
2026-05-07 07:54 51.93743 5.18584 31261 ft 404 kts 37°
2026-05-07 07:55 51.95989 5.21398 31518 ft 407 kts 37°
2026-05-07 07:55 51.98238 5.24220 31745 ft 409 kts 37°
2026-05-07 07:55 52.00502 5.27068 31981 ft 412 kts 37°
2026-05-07 07:55 52.02768 5.29926 32209 ft 414 kts 37°
2026-05-07 07:56 52.05059 5.32819 32430 ft 417 kts 37°
2026-05-07 07:56 52.07359 5.35724 32655 ft 419 kts 37°
2026-05-07 07:56 52.09638 5.38605 32864 ft 422 kts 37°
2026-05-07 07:56 52.11961 5.41546 33070 ft 424 kts 37°
2026-05-07 07:57 52.14288 5.44496 33276 ft 427 kts 37°
2026-05-07 07:57 52.16655 5.47498 33475 ft 429 kts 37°
2026-05-07 07:57 52.19024 5.50506 33657 ft 432 kts 37°
2026-05-07 07:57 52.21406 5.53536 33842 ft 434 kts 37°
2026-05-07 07:58 52.23752 5.56527 34043 ft 436 kts 37°
2026-05-07 07:58 52.26145 5.59582 34188 ft 439 kts 37°
2026-05-07 07:58 52.28577 5.62691 34343 ft 441 kts 37°
2026-05-07 07:58 52.30994 5.65783 34496 ft 443 kts 37°
2026-05-07 07:59 52.33400 5.68867 34638 ft 445 kts 37°
2026-05-07 07:59 52.35864 5.72031 34776 ft 447 kts 37°
2026-05-07 07:59 52.38316 5.75181 34922 ft 449 kts 37°
2026-05-07 07:59 52.40775 5.78347 35030 ft 451 kts 37°
2026-05-07 08:00 52.43264 5.81555 35043 ft 455 kts 37°
2026-05-07 08:00 52.48275 5.88032 35045 ft 463 kts 37°
2026-05-07 08:01 52.53351 5.94607 35038 ft 465 kts 38°
2026-05-07 08:01 52.58377 6.01139 35034 ft 465 kts 38°
2026-05-07 08:02 52.63478 6.07789 35032 ft 465 kts 38°
2026-05-07 08:02 52.68550 6.14425 35029 ft 465 kts 38°
2026-05-07 08:03 52.73624 6.21082 35029 ft 465 kts 38°
2026-05-07 08:03 52.78654 6.27700 35018 ft 465 kts 38°
2026-05-07 08:04 52.83726 6.34394 35026 ft 465 kts 38°
2026-05-07 08:04 52.88779 6.41085 35033 ft 465 kts 38°
2026-05-07 08:05 52.93842 6.47808 35038 ft 465 kts 38°
2026-05-07 08:05 52.98883 6.54523 35044 ft 465 kts 38°
2026-05-07 08:06 53.03919 6.61253 35047 ft 465 kts 38°
2026-05-07 08:06 53.08944 6.67989 35047 ft 465 kts 38°
2026-05-07 08:07 53.14012 6.74803 35046 ft 465 kts 38°
2026-05-07 08:07 53.19048 6.81595 35040 ft 465 kts 38°
2026-05-07 08:08 53.24035 6.88342 35035 ft 465 kts 38°
2026-05-07 08:08 53.29083 6.95194 35038 ft 465 kts 38°
2026-05-07 08:09 53.34068 7.01980 35045 ft 465 kts 38°
2026-05-07 08:09 53.39067 7.08807 35048 ft 464 kts 38°
2026-05-07 08:10 53.44074 7.15665 35048 ft 464 kts 38°
2026-05-07 08:10 53.49095 7.22565 35049 ft 464 kts 38°
2026-05-07 08:11 53.54065 7.29417 35044 ft 464 kts 38°
2026-05-07 08:11 53.59060 7.36326 35042 ft 465 kts 38°
2026-05-07 08:12 53.64057 7.43258 35044 ft 465 kts 38°
2026-05-07 08:12 53.69014 7.50158 35045 ft 464 kts 38°
2026-05-07 08:13 53.73998 7.57117 35043 ft 464 kts 38°
2026-05-07 08:13 53.78965 7.64072 35047 ft 464 kts 39°
2026-05-07 08:14 53.83910 7.71019 35053 ft 464 kts 39°
2026-05-07 08:14 53.88884 7.78029 35054 ft 464 kts 39°
2026-05-07 08:15 53.93868 7.85077 35055 ft 464 kts 39°
2026-05-07 08:15 53.98790 7.92060 35056 ft 464 kts 39°
2026-05-07 08:16 54.03718 7.99075 35063 ft 464 kts 39°
2026-05-07 08:16 54.07861 8.04988 35063 ft 464 kts 39°
2026-05-07 08:17 54.12779 8.12028 35060 ft 464 kts 39°
2026-05-07 08:17 54.17747 8.19162 35057 ft 464 kts 39°
2026-05-07 08:18 54.22688 8.26280 35056 ft 464 kts 39°
2026-05-07 08:18 54.27575 8.33345 35053 ft 464 kts 39°
2026-05-07 08:19 54.32512 8.40504 35052 ft 464 kts 39°
2026-05-07 08:19 54.37419 8.47643 35056 ft 463 kts 39°
2026-05-07 08:20 54.42335 8.54818 35059 ft 464 kts 39°
2026-05-07 08:20 54.47252 8.62018 35058 ft 464 kts 39°
2026-05-07 08:21 54.52150 8.69214 35055 ft 464 kts 39°
2026-05-07 08:21 54.57031 8.76410 35056 ft 464 kts 39°
2026-05-07 08:22 54.61953 8.83689 35060 ft 464 kts 39°
2026-05-07 08:22 54.66868 8.90983 35058 ft 464 kts 39°
2026-05-07 08:23 54.71772 8.98283 35062 ft 464 kts 39°
2026-05-07 08:23 54.76635 9.05544 35062 ft 465 kts 39°
2026-05-07 08:24 54.81515 9.12858 35059 ft 465 kts 39°
2026-05-07 08:24 54.86308 9.20466 35064 ft 466 kts 46°
2026-05-07 08:25 54.90651 9.28743 35063 ft 466 kts 47°
2026-05-07 08:25 54.94941 9.37203 35067 ft 466 kts 47°
2026-05-07 08:26 55.01366 9.49993 35067 ft 466 kts 47°
2026-05-07 08:26 55.05600 9.58428 35076 ft 466 kts 47°
2026-05-07 08:27 55.05929 9.59086 35076 ft 466 kts 47°